Home   Weather   Shantou   Past weeks

Flag for China Past Weather in Shantou, Guangdong, China — Yesterday and Last 2 Weeks

Now
90 °F

Scattered clouds.


Feels Like: 98 °F
Forecast: 74 / 87 °F
Wind: 6 mph from South

Location: Shantou Airport

Current Time: May 30, 2017 at 5:23:32 pm

Latest Report: May 30, 2017 at 4:00 pm


Visibility: N/A

Pressure: 29.74 "Hg

Humidity: 59%

Dew Point: 73 °F

Location of ShantouLocation

Past Weather in Shantou — Graph

°F

Shantou Temperature Yesterday

Maximum temperature yesterday: 88 °F (at 2:00 pm)
Minimum temperature yesterday: 70 °F (at 4:00 am)
Average temperature yesterday: 79 °F

High & Low Weather Summary for the Past Weeks

 TemperatureHumidityPressure
High90 °F (May 30, 2:00 pm)100% (May 15, 4:00 pm)29.95 "Hg (May 15, 4:00 pm)
Low68 °F (May 19, 7:00 pm)35% (May 27, 1:00 pm)29.65 "Hg (May 24, 5:00 pm)
Average77 °F85%29.81 "Hg
* Reported May 15 4:00 pm — May 30 4:00 pm, Shantou. Weather by CustomWeather, © 2017

Note: Actual official high and low records may vary slightly from our data, if they occured in-between our weather recording intervals... More about our weather records

Advertising

Shantou Weather History for the Previous 24 Hours

Scroll right to see more
 ConditionsComfort  
Time TempWeatherWind HumidityBarometerVisibility
4:00 pm
Tue, May 30
90 °FScattered clouds.6 mph59%29.74 "HgN/A
3:00 pm90 °FPartly sunny.6 mph59%29.77 "HgN/A
2:00 pm90 °FPartly sunny.6 mph59%29.77 "HgN/A
1:00 pm88 °FPartly sunny.6 mph59%29.80 "HgN/A
12:00 pm86 °FPartly sunny.6 mph62%29.83 "HgN/A
11:00 am84 °FScattered clouds.3 mph66%29.86 "HgN/A
10:00 am82 °FPartly sunny.3 mph70%29.86 "HgN/A
9:00 am81 °FPartly sunny.1 mph74%29.86 "HgN/A
8:00 am79 °FPartly sunny.3 mph84%29.86 "HgN/A
7:00 am77 °FPassing clouds.3 mph83%29.83 "HgN/A
6:00 am75 °FPassing clouds.3 mph89%29.83 "HgN/A
5:00 am75 °FClear.3 mph89%29.83 "Hg10 mi
4:00 am75 °FPassing clouds.3 mph94%29.83 "HgN/A
3:00 am75 °FPassing clouds.3 mph94%29.83 "HgN/A
2:00 am77 °FPassing clouds.3 mph89%29.83 "HgN/A
1:00 am77 °FPassing clouds.3 mph89%29.86 "HgN/A
12:00 am77 °FPassing clouds.3 mph89%29.86 "HgN/A
11:00 pm
Mon, May 29
77 °FPassing clouds.6 mph89%29.86 "HgN/A
10:00 pm77 °FClear.6 mph89%29.86 "Hg10 mi
9:00 pm77 °FClear.6 mph89%29.83 "Hg10 mi
8:00 pm79 °FPassing clouds.8 mph84%29.83 "HgN/A
7:00 pm81 °FPassing clouds.8 mph74%29.80 "HgN/A
6:00 pm82 °FSunny.10 mph66%29.80 "Hg10 mi
5:00 pm84 °FPassing clouds.8 mph62%29.77 "HgN/A
Weather by CustomWeather, © 2017

See weather overviewHow to use our weather pages